[[{"header":{"parameterUnit":"m.s-1","parameterCategory":1,"la1":30.2991,"la2":30.254,"lo1":-89.0895,"lo2":-89.0444,"dy":0.0017,"dx":0.0017,"nx":28,"ny":28,"refTime":"2024-05-09T03:00:00:Z","depth":0,"parameterNumber":2,"parameterNumberName":"U-component_of_WINDS"},"data":[0,0,0,0,0,0,0,0,0,0,0,0,0,0,0,0,0,0,0,0,0,0,0,0,0,0,0,0,0,0,0,0,0,0,0,0,0,0,0,0,0,0,0,0,0,0,0,0,0,0,0,0,0,0,0,0,0,0,1.2406,1.2408,0,1.2622,1.2625,1.2627,1.2689,1.2688,1.2686,1.2685,1.2914,1.2921,1.2928,0,0,0,0,0,0,0,0,0,0,0,0,0,1.2054,1.206,1.2405,1.2408,1.2411,1.2622,1.2625,1.2628,1.2689,1.2688,1.2686,1.2685,1.2912,1.292,1.2929,0,0,0,0,0,0,0,0,0,0,0,0,0,1.2232,1.2062,1.2405,1.2467,1.2474,1.2621,1.2625,1.2629,1.2689,1.2687,1.2686,1.2684,1.2909,1.2919,1.293,1.3033,0,0,1.2963,1.2968,0,0,0,0,0,0,0,0,1.2222,1.2245,1.2455,1.2463,1.2472,1.2626,1.2585,1.2765,1.269,1.2608,1.2685,1.2683,1.282,1.2838,1.2883,1.3044,1.3054,1.2964,1.2971,1.2975,1.2978,0,0,0,0,0,0,0,1.221,1.2236,1.2491,1.2458,1.2468,1.2487,1.251,1.2619,1.2722,1.2615,1.262,1.2644,1.2825,1.2873,1.2889,1.3057,1.2964,1.2973,1.298,1.2984,1.3319,1.3321,0,0,0,0,0,0,1.2186,1.2225,1.2485,1.2498,1.234,1.2494,1.252,1.2579,1.2721,1.2741,1.2646,1.2646,1.2855,1.2876,1.2897,1.303,1.2975,1.2985,1.2992,1.3316,1.3319,1.3322,0,0,0,0,0,0,1.2178,1.2208,1.2476,1.2363,1.2399,1.2502,1.2567,1.2584,1.2632,1.2744,1.2763,1.2675,1.2854,1.2882,1.3,1.3039,1.299,1.3,1.3313,1.3317,1.332,1.3294,0,0,0,0,0,0,1.2167,1.2205,1.2243,1.2363,1.2404,1.2571,1.257,1.2589,1.265,1.2653,1.2777,1.2796,1.2855,1.2983,1.301,1.3053,1.3009,1.331,1.3315,1.3319,1.3292,1.3296,1.33,0,0,0,0,0,1.2155,1.2227,1.2244,1.2275,1.2453,1.2573,1.2597,1.2662,1.2652,1.2693,1.2766,1.2792,1.303,1.2994,1.3026,1.3072,1.3308,1.3314,1.3319,1.329,1.3296,1.33,0,0,0,0,0,0,1.211,1.2244,1.2264,1.2378,1.2463,1.2583,1.2636,1.2665,1.2757,1.2756,1.2835,1.2863,1.2975,1.3036,1.2994,1.3182,1.317,1.3182,1.3138,1.3144,1.3148,1.3131,1.3018,0,0,0,0,0,1.2113,1.2196,1.231,1.24,1.2442,1.2531,1.2586,1.2629,1.2722,1.2759,1.284,1.2932,1.3028,1.3089,1.3183,1.3302,1.3332,1.3349,1.3353,1.3356,1.3366,1.3436,1.3446,1.3339,1.3339,1.3339,0,0,1.212,1.2204,1.2252,1.2393,1.2464,1.2552,1.2562,1.2653,1.2721,1.2774,1.2889,1.2953,1.3061,1.3179,1.3236,1.3233,1.3402,1.3363,1.3364,1.3373,1.3443,1.3453,1.3462,1.3343,1.3342,1.3342,0,0,1.2179,1.225,1.2333,1.2405,1.2513,1.2573,1.2593,1.2709,1.2753,1.287,1.2913,1.2996,1.3158,1.3234,1.3294,1.3386,1.3414,1.3414,1.3436,1.3504,1.3512,1.352,1.3555,1.3567,1.3423,1.3423,1.3423,0,1.2175,1.2307,1.2373,1.2463,1.2525,1.2577,1.2664,1.2731,1.2865,1.2909,1.2903,1.3111,1.3187,1.3326,1.3348,1.3394,1.3423,1.34,1.3505,1.3514,1.3522,1.3557,1.3569,1.3423,1.3423,1.3423,1.3423,0,1.2298,1.2389,1.2444,1.2571,1.264,1.2728,1.2811,1.2873,1.2911,1.2972,1.3093,1.3187,1.3302,1.3339,1.3377,1.3485,1.348,1.3489,1.3479,1.3531,1.3565,1.3578,1.3422,1.3422,1.3422,1.3423,0,0,1.2333,1.2496,1.2516,1.2575,1.27,1.2773,1.2866,1.2977,1.303,1.3122,1.3204,1.3342,1.3352,1.342,1.3468,1.3527,1.3598,1.353,1.3534,1.3541,1.3726,1.3719,1.3733,1.3618,1.362,1.3623,1.3718,0,1.2408,1.2572,1.2637,1.2772,1.2859,1.2911,1.2993,1.308,1.3141,1.3226,1.3295,1.3392,1.3397,1.3439,1.35,1.3576,1.3636,1.357,1.3698,1.3701,1.3669,1.375,1.3742,1.3827,1.3731,1.3733,1.3735,0,1.2517,1.2609,1.2752,1.2869,1.2908,1.298,1.3089,1.3169,1.3271,1.3312,1.3389,1.3434,1.3537,1.3521,1.3666,1.362,1.3677,1.3722,1.3727,1.3742,1.3721,1.3769,1.3856,1.3869,1.3756,1.3754,1.3753,0,1.253,1.269,1.2797,1.2847,1.2985,1.3035,1.3095,1.3195,1.3259,1.3356,1.3399,1.3507,1.3566,1.3651,1.3725,1.3706,1.3865,1.3854,1.3905,1.3903,1.3936,1.3933,1.4034,1.3971,1.397,1.397,1.397,0,1.2608,1.2694,1.2805,1.2871,1.2971,1.3046,1.3144,1.3208,1.3297,1.338,1.3432,1.3509,1.3602,1.3692,1.3752,1.3865,1.3891,1.393,1.3945,1.3925,1.3921,1.3964,1.396,1.3974,1.3973,1.3972,1.3972,0,1.2639,1.2716,1.2837,1.2958,1.2991,1.3059,1.3165,1.3234,1.3298,1.3402,1.3431,1.3533,1.3642,1.3725,1.3867,1.3907,1.4028,1.4043,1.3993,1.4001,1.4047,1.4042,1.418,1.4204,1.4123,1.4123,1.4124,0,1.2683,1.2751,1.288,1.2938,1.2997,1.309,1.3156,1.3234,1.3301,1.3424,1.3478,1.3591,1.3684,1.3857,1.3946,1.4057,1.4076,1.4117,1.4093,1.4072,1.4079,1.4074,1.4083,1.412,1.412,1.4121,1.4121,0,1.2755,1.2791,1.2882,1.2988,1.3064,1.3152,1.3241,1.3286,1.3381,1.3454,1.3565,1.3638,1.3784,1.3896,1.4016,1.4082,1.4119,1.4128,1.4146,1.4127,1.4096,1.4115,1.4003,1.4124,1.4124,1.4124,1.4124,1.4124,1.2795,1.2859,1.296,1.3061,1.3136,1.3219,1.329,1.3363,1.3456,1.3579,1.3621,1.3737,1.3842,1.4006,1.4074,1.4168,1.4169,1.4194,1.4201,1.4206,1.4205,1.408,1.419,1.419,1.419,1.419,1.419,0,1.2871,1.2939,1.3032,1.3154,1.3235,1.326,1.3361,1.3428,1.3528,1.3622,1.3713,1.3843,1.3954,1.4052,1.4168,1.4225,1.4245,1.4253,1.425,1.4265,1.4197,1.417,1.4235,1.4235,1.4234,1.4234,1.4234,1.4234,1.292,1.303,1.3078,1.3227,1.3296,1.3408,1.3464,1.3542,1.3617,1.3759,1.385,1.3913,1.4011,1.4134,1.4238,1.4265,1.4306,1.431,1.4341,1.4275,1.4269,1.4264,1.424,1.4317,1.4318,1.4401,1.4402,1.4403]},{"header":{"parameterUnit":"m.s-1","parameterCategory":1,"la1":30.2991,"la2":30.254,"lo1":-89.0895,"lo2":-89.0444,"dy":0.0017,"dx":0.0017,"nx":28,"ny":28,"refTime":"2024-05-09T03:00:00:Z","depth":0,"parameterNumber":3,"parameterNumberName":"V-component_of_WINDS"},"data":[0,0,0,0,0,0,0,0,0,0,0,0,0,0,0,0,0,0,0,0,0,0,0,0,0,0,0,0,0,0,0,0,0,0,0,0,0,0,0,0,0,0,0,0,0,0,0,0,0,0,0,0,0,0,0,0,0,0,0.3459,0.3461,0,0.369,0.3693,0.3696,0.3666,0.3662,0.3658,0.3654,0.3902,0.3912,0.3922,0,0,0,0,0,0,0,0,0,0,0,0,0,0.2997,0.3005,0.3459,0.3462,0.3464,0.369,0.3693,0.3696,0.3666,0.3662,0.3657,0.3653,0.3899,0.3911,0.3923,0,0,0,0,0,0,0,0,0,0,0,0,0,0.321,0.3008,0.3458,0.3476,0.348,0.3689,0.3693,0.3697,0.3667,0.3661,0.3656,0.365,0.3895,0.391,0.3925,0.4134,0,0,0.3971,0.3978,0,0,0,0,0,0,0,0,0.3198,0.3227,0.3471,0.3475,0.348,0.3643,0.3621,0.3844,0.3669,0.3597,0.3654,0.3648,0.3821,0.3842,0.3899,0.4145,0.4156,0.3973,0.3982,0.3989,0.3993,0,0,0,0,0,0,0,0.3183,0.3217,0.3551,0.3474,0.348,0.3475,0.3499,0.3663,0.3739,0.3602,0.3601,0.3628,0.3823,0.3884,0.3904,0.416,0.3972,0.3986,0.3995,0.4001,0.4585,0.4591,0,0,0,0,0,0,0.3163,0.3205,0.3543,0.3558,0.3322,0.3488,0.3515,0.3597,0.3737,0.3752,0.3633,0.3626,0.3861,0.3887,0.3913,0.4164,0.3988,0.4003,0.4011,0.4579,0.4587,0.4593,0,0,0,0,0,0,0.3153,0.3193,0.3534,0.3381,0.3424,0.3502,0.3594,0.3604,0.3665,0.3759,0.3774,0.3681,0.3857,0.3891,0.4077,0.4172,0.401,0.4023,0.4571,0.4581,0.459,0.467,0,0,0,0,0,0,0.314,0.319,0.3269,0.3383,0.3432,0.3693,0.36,0.3613,0.369,0.3684,0.3808,0.3824,0.3855,0.4055,0.4092,0.4191,0.4035,0.4563,0.4576,0.4587,0.4659,0.4681,0.47,0,0,0,0,0,0.3123,0.3286,0.3273,0.3314,0.3532,0.3699,0.3727,0.3757,0.3698,0.3779,0.3838,0.382,0.4155,0.4074,0.4116,0.422,0.4557,0.4572,0.4586,0.465,0.4677,0.4699,0,0,0,0,0,0,0.3186,0.3301,0.3289,0.3492,0.3585,0.3693,0.3796,0.3785,0.39,0.389,0.3925,0.3953,0.414,0.4199,0.4106,0.4428,0.4349,0.4372,0.4383,0.4409,0.4429,0.4412,0.4048,0,0,0,0,0,0.3223,0.3346,0.344,0.3611,0.3658,0.3719,0.3793,0.3807,0.3906,0.3947,0.4021,0.412,0.4247,0.4332,0.4454,0.4667,0.4693,0.4759,0.4779,0.4795,0.4816,0.4929,0.4959,0.464,0.464,0.464,0,0,0.3302,0.338,0.3456,0.3625,0.3699,0.3827,0.3753,0.3893,0.3988,0.397,0.4148,0.4205,0.4318,0.4517,0.4609,0.4572,0.4908,0.4813,0.4825,0.4838,0.4947,0.4977,0.5004,0.465,0.4648,0.4647,0,0,0.3511,0.3582,0.373,0.3803,0.3914,0.3953,0.3988,0.4097,0.4132,0.4311,0.4298,0.4413,0.4633,0.4713,0.4783,0.5015,0.5001,0.5054,0.5161,0.5271,0.5296,0.5318,0.54,0.5429,0.5074,0.5074,0.5074,0,0.3596,0.3785,0.3808,0.3948,0.4022,0.4005,0.4155,0.4227,0.4374,0.4427,0.4382,0.4653,0.4729,0.4945,0.5,0.5058,0.5099,0.5041,0.529,0.5313,0.5334,0.5412,0.5443,0.508,0.5079,0.5078,0.5078,0,0.3884,0.4015,0.4122,0.4258,0.4344,0.4489,0.4534,0.4619,0.4625,0.4668,0.4849,0.4937,0.5076,0.5128,0.5138,0.5345,0.5318,0.5281,0.5203,0.5369,0.5443,0.5474,0.5088,0.5086,0.5084,0.5082,0,0,0.4143,0.4285,0.4324,0.4384,0.4502,0.4605,0.4748,0.4879,0.495,0.5051,0.5172,0.5354,0.5319,0.5398,0.5416,0.5512,0.5688,0.5464,0.5467,0.5502,0.5919,0.5946,0.598,0.5678,0.5684,0.5688,0.5909,0,0.4362,0.4611,0.4633,0.4858,0.4979,0.4962,0.5086,0.5172,0.5215,0.5326,0.5375,0.5503,0.5448,0.5494,0.5589,0.5646,0.5772,0.5631,0.5792,0.5798,0.5764,0.6019,0.6049,0.6254,0.5938,0.5943,0.5947,0,0.4653,0.4756,0.4991,0.5087,0.5139,0.525,0.5369,0.5474,0.5572,0.5596,0.568,0.5683,0.5831,0.5744,0.5948,0.585,0.5917,0.5955,0.5963,0.5981,0.5883,0.6044,0.632,0.635,0.5993,0.599,0.5986,0,0.4816,0.5015,0.5179,0.5231,0.5349,0.5427,0.548,0.5571,0.5646,0.5752,0.5801,0.5923,0.5991,0.6086,0.6122,0.6055,0.6323,0.624,0.6348,0.6347,0.6407,0.6403,0.6698,0.645,0.6449,0.6448,0.6448,0,0.506,0.5204,0.5254,0.5356,0.5516,0.554,0.5699,0.5748,0.5828,0.594,0.5934,0.6039,0.6079,0.6192,0.6221,0.6384,0.6415,0.6439,0.6445,0.644,0.6437,0.6486,0.6473,0.6457,0.6455,0.6453,0.6452,0,0.5271,0.531,0.5488,0.5582,0.5609,0.5723,0.5805,0.5903,0.5942,0.6083,0.6118,0.6181,0.6312,0.6355,0.6516,0.6535,0.6725,0.6719,0.6691,0.6692,0.6797,0.6787,0.7135,0.7181,0.6902,0.6904,0.6906,0,0.5424,0.5533,0.5637,0.5709,0.5763,0.5881,0.5956,0.5983,0.6062,0.6177,0.6262,0.6391,0.6495,0.6705,0.6767,0.6888,0.6886,0.6999,0.6904,0.6894,0.6887,0.688,0.689,0.7017,0.702,0.7023,0.7024,0,0.569,0.5702,0.581,0.5923,0.6011,0.6103,0.6192,0.6252,0.6292,0.6381,0.6512,0.6593,0.6752,0.6881,0.7003,0.706,0.705,0.7053,0.7084,0.7081,0.706,0.7071,0.6739,0.7046,0.7044,0.7042,0.7041,0.704,0.5877,0.5972,0.6058,0.6177,0.6244,0.6326,0.6421,0.647,0.6579,0.6708,0.6718,0.6859,0.695,0.7113,0.7175,0.7287,0.7255,0.7301,0.7313,0.7324,0.7331,0.704,0.731,0.7309,0.7309,0.7308,0.7308,0,0.6142,0.6195,0.6304,0.6424,0.6517,0.6494,0.6589,0.6669,0.6793,0.6877,0.6977,0.7127,0.7249,0.7317,0.744,0.7516,0.7514,0.7548,0.7543,0.7556,0.7353,0.7313,0.7547,0.7547,0.7547,0.7546,0.7546,0.7546,0.6291,0.6449,0.6471,0.6663,0.6716,0.6851,0.6907,0.6982,0.7049,0.7214,0.7314,0.7356,0.7434,0.756,0.7672,0.7688,0.7734,0.7771,0.7784,0.7595,0.757,0.7547,0.751,0.778,0.7781,0.7977,0.7979,0.798]}]]